Change the Weather History Date:

Monday, February 17, 2014

  Actual Average (KDFW) Record (KDFW)
Temperature  
Mean Temperature 58 °F 50 °F  
Max Temperature 70 °F 61 °F 88 °F (1959)
Min Temperature 44 °F 40 °F 11 °F (1910)
Degree Days  
Heating Degree Days 7 15  
Month to date heating degree days 280  
Since 1 July heating degree days 1785  
Cooling Degree Days 0 0  
Month to date cooling degree days 0  
Year to date cooling degree days 2  
Growing Degree Days 8 (Base 50)    
Moisture  
Dew Point 35 °F    
Average Humidity 47    
Maximum Humidity 91    
Minimum Humidity 12    
Precipitation  
Precipitation 0.00 in 0.10 in 2.45 in (1938)
Month to date precipitation 1.55  
Year to date precipitation 3.68  
Snow  
Snow 0.00 in 0.00 in 7.50 in (1978)
Month to date snowfall 0.3  
Since 1 July snowfall 0.9  
Snow Depth -    
Sea Level Pressure  
Sea Level Pressure 30.04 in    
Wind  
Wind Speed 13 mph (NNW)    
Max Wind Speed 24 mph    
Max Gust Speed 31 mph    
Visibility 9 miles    
Events      
T = Trace of Precipitation, MM = Missing Value Source: NWS Daily Summary

Daily Weather History Graph

Daily Weather History Graph

Search for Another Location

Airport or City:

Trip Planner

Search our weather history database for the weather conditions in past years. The results will help you decide how hot, cold, wet, or windy it might be!

Date:

Astronomy

Feb. 17, 2014 Rise Set
Actual Time 7:08 AM CST 6:12 PM CST
Civil Twilight 6:43 AM CST 6:38 PM CST
Nautical Twilight 6:14 AM CST 7:07 PM CST
Astronomical Twilight 5:45 AM CST 7:36 PM CST
Moon 8:57 PM CST (2/17) 8:19 AM CST (2/17)
Length of Visible Light 11h 54m
Length of Day
11h 04m
Waning Gibbous, 93% of the Moon is Illuminated
Feb 17
Waning Gibbous
Feb 22
Last Quarter
Mar 1
New
Mar 8
First Quarter
Mar 16
Full

Hourly Weather History & Observations

Time (CST) Temp. Dew Point Humidity Pressure Visibility Wind Dir Wind Speed Gust Speed Precip Events Conditions
12:15 AM 61.3 °F 54.9 °F 79% 29.86 in 10.0 mi SSE 12.7 mph - N/A   Clear
12:35 AM 61.7 °F 55.4 °F 80% 29.85 in 10.0 mi SSE 13.8 mph 18.4 mph N/A   Clear
12:55 AM 61.7 °F 55.6 °F 80% 29.85 in 10.0 mi South 16.1 mph - N/A   Clear
1:15 AM 61.3 °F 55.9 °F 82% 29.85 in 10.0 mi South 15.0 mph - N/A   Clear
1:35 AM 61.0 °F 56.1 °F 84% 29.84 in 10.0 mi South 15.0 mph - N/A   Clear
1:55 AM 60.8 °F 56.3 °F 85% 29.84 in 7.0 mi South 13.8 mph 19.6 mph N/A   Clear
2:15 AM 60.8 °F 56.5 °F 86% 29.84 in 7.0 mi South 18.4 mph - N/A   Clear
2:35 AM 60.8 °F 56.5 °F 86% 29.83 in 7.0 mi South 16.1 mph 21.9 mph N/A   Clear
2:55 AM 60.4 °F 56.5 °F 87% 29.82 in 7.0 mi South 16.1 mph 23.0 mph N/A   Clear
3:15 AM 60.4 °F 56.5 °F 87% 29.83 in 5.0 mi South 16.1 mph - N/A   Clear
3:35 AM 60.6 °F 56.7 °F 87% 29.83 in 5.0 mi SSW 16.1 mph - N/A   Clear
3:55 AM 60.8 °F 56.7 °F 86% 29.85 in 5.0 mi SSW 18.4 mph - N/A   Clear
4:15 AM 60.4 °F 56.5 °F 87% 29.85 in 5.0 mi SSW 17.3 mph 24.2 mph N/A   Clear
4:35 AM 59.9 °F 56.5 °F 88% 29.84 in 5.0 mi SSW 17.3 mph - N/A   Clear
4:55 AM 59.4 °F 56.3 °F 90% 29.85 in 4.0 mi SSW 16.1 mph - N/A   Clear
5:15 AM 59.0 °F 55.9 °F 90% 29.85 in 4.0 mi SSW 16.1 mph - N/A   Clear
5:35 AM 59.0 °F 55.9 °F 90% 29.88 in 4.0 mi SW 15.0 mph - N/A   Clear
5:55 AM 58.5 °F 55.6 °F 90% 29.90 in 4.0 mi SW 11.5 mph 20.7 mph N/A   Clear
6:15 AM 57.7 °F 55.2 °F 91% 29.92 in 3.0 mi SW 16.1 mph 19.6 mph N/A   Clear
6:35 AM 56.7 °F 54.0 °F 91% 29.95 in 3.0 mi WSW 9.2 mph - N/A   Clear
6:55 AM 57.4 °F 52.7 °F 84% 29.96 in 5.0 mi West 10.4 mph - N/A   Clear
7:15 AM 56.5 °F 49.8 °F 78% 29.98 in 10.0 mi WNW 8.1 mph - N/A   Clear
7:35 AM 55.8 °F 47.8 °F 75% 29.99 in 10.0 mi NW 8.1 mph - N/A   Clear
7:55 AM 55.9 °F 46.4 °F 70% 30.01 in 10.0 mi NW 8.1 mph - N/A   Clear
8:15 AM 56.5 °F 45.3 °F 66% 30.02 in 10.0 mi NW 9.2 mph - N/A   Clear
8:35 AM 58.6 °F 42.1 °F 54% 30.04 in 10.0 mi NNW 13.8 mph - N/A   Clear
8:55 AM 59.4 °F 38.7 °F 46% 30.05 in 10.0 mi NNW 10.4 mph - N/A   Clear
9:15 AM 61.0 °F 36.0 °F 39% 30.07 in 10.0 mi North 13.8 mph 19.6 mph N/A   Clear
9:35 AM 62.4 °F 32.4 °F 32% 30.08 in 10.0 mi North 18.4 mph 24.2 mph N/A   Clear
9:55 AM 63.1 °F 29.8 °F 29% 30.09 in 10.0 mi North 23.0 mph 29.9 mph N/A   Clear
10:15 AM 63.7 °F 28.6 °F 27% 30.10 in 10.0 mi NNW 21.9 mph 28.8 mph N/A   Clear
10:35 AM 64.9 °F 27.0 °F 24% 30.10 in 10.0 mi NNW 24.2 mph 31.1 mph N/A   Clear
10:55 AM 65.5 °F 27.5 °F 24% 30.11 in 10.0 mi NNW 18.4 mph 25.3 mph N/A   Clear
11:15 AM 65.7 °F 26.4 °F 23% 30.12 in 10.0 mi North 19.6 mph 25.3 mph N/A   Clear
11:35 AM 68.0 °F 25.9 °F 21% 30.13 in 10.0 mi North 23.0 mph 28.8 mph N/A   Clear
11:55 AM 67.6 °F 25.3 °F 20% 30.13 in 10.0 mi North 19.6 mph 25.3 mph N/A   Clear
12:15 PM 66.2 °F 24.8 °F 21% 30.13 in 10.0 mi NNW 21.9 mph 28.8 mph N/A   Clear
12:35 PM 67.3 °F 27.3 °F 22% 30.13 in 10.0 mi NNW 16.1 mph 19.6 mph N/A   Clear
12:55 PM 67.8 °F 25.9 °F 21% 30.12 in 10.0 mi North 11.5 mph 19.6 mph N/A   Clear
1:15 PM 68.5 °F 25.2 °F 20% 30.11 in 10.0 mi North 15.0 mph 21.9 mph N/A   Clear
1:35 PM 68.4 °F 25.3 °F 20% 30.11 in 10.0 mi North 13.8 mph 20.7 mph N/A   Clear
1:55 PM 68.7 °F 24.3 °F 19% 30.10 in 10.0 mi North 12.7 mph 19.6 mph N/A   Clear
2:15 PM 69.8 °F 22.3 °F 17% 30.09 in 10.0 mi North 12.7 mph 18.4 mph N/A   Clear
2:35 PM 69.3 °F 19.4 °F 15% 30.10 in 10.0 mi North 10.4 mph - N/A   Clear
2:55 PM 70.5 °F 15.8 °F 12% 30.10 in 10.0 mi North 11.5 mph 19.6 mph N/A   Clear
3:15 PM 70.0 °F 16.9 °F 13% 30.10 in 10.0 mi North 10.4 mph - N/A   Clear
3:35 PM 69.8 °F 18.1 °F 14% 30.10 in 10.0 mi North 8.1 mph - N/A   Clear
3:55 PM 70.0 °F 19.0 °F 14% 30.11 in 10.0 mi North 10.4 mph - N/A   Clear
4:15 PM 68.9 °F 17.2 °F 14% 30.12 in 10.0 mi North 10.4 mph - N/A   Clear
4:35 PM 68.0 °F 18.9 °F 15% 30.12 in 10.0 mi NNW 9.2 mph - N/A   Clear
4:55 PM 66.6 °F 21.0 °F 18% 30.13 in 10.0 mi NNW 8.1 mph - N/A   Clear
5:15 PM 65.3 °F 21.4 °F 19% 30.13 in 10.0 mi North 5.8 mph - N/A   Clear
5:35 PM 62.8 °F 24.8 °F 24% 30.13 in 10.0 mi NNW 3.5 mph - N/A   Clear
5:55 PM 61.5 °F 22.8 °F 23% 30.14 in 10.0 mi North 4.6 mph - N/A   Clear
6:15 PM 60.3 °F 23.0 °F 24% 30.14 in 10.0 mi NNW 4.6 mph - N/A   Clear
6:35 PM 58.6 °F 23.2 °F 26% 30.15 in 10.0 mi NNW 4.6 mph - N/A   Clear
6:55 PM 58.6 °F 22.5 °F 25% 30.15 in 10.0 mi NNW 3.5 mph - N/A   Clear
7:15 PM 58.8 °F 21.7 °F 24% 30.16 in 10.0 mi North 3.5 mph - N/A   Clear
7:35 PM 57.6 °F 22.3 °F 26% 30.16 in 10.0 mi North 3.5 mph - N/A   Clear
7:55 PM 57.6 °F 21.4 °F 25% 30.16 in 10.0 mi North 3.5 mph - N/A   Clear
8:15 PM 57.4 °F 21.4 °F 25% 30.17 in 10.0 mi North 3.5 mph - N/A   Clear
8:35 PM 49.6 °F 27.0 °F 41% 30.17 in 10.0 mi Calm Calm - N/A   Clear
8:55 PM 50.5 °F 26.4 °F 39% 30.17 in 10.0 mi Calm Calm - N/A   Clear
9:15 PM 49.8 °F 26.2 °F 40% 30.17 in 10.0 mi Calm Calm - N/A   Clear
9:35 PM 52.2 °F 21.7 °F 30% 30.16 in 10.0 mi NNE 4.6 mph - N/A   Clear
9:55 PM 52.0 °F 23.0 °F 32% 30.16 in 10.0 mi NNE 4.6 mph - N/A   Clear
10:15 PM 52.7 °F 22.1 °F 30% 30.16 in 10.0 mi NE 4.6 mph - N/A   Clear
10:35 PM 52.2 °F 21.9 °F 31% 30.16 in 10.0 mi NNE 3.5 mph - N/A   Clear
10:55 PM 50.7 °F 22.1 °F 33% 30.16 in 10.0 mi Calm Calm - N/A   Clear
11:15 PM 46.8 °F 26.1 °F 44% 30.14 in 10.0 mi Calm Calm - N/A   Clear
11:55 PM 44.4 °F 25.9 °F 48% 30.13 in 10.0 mi Calm Calm - N/A   Clear